owner,sensor,date,latitude,longitude,vertical_datum,wind_speed,wind_to_direction,wind_speed_of_gust,qcFlag 
SCCF RECON,ioos:station:SCCF:16:1,2019-09-01T04:15:00Z,26.4345,-81.9647,10.0,7.1,69.1,-9999.0,'11111222,111112229999922' 
SCCF RECON,ioos:station:SCCF:16:1,2019-09-01T05:15:00Z,26.4345,-81.9647,10.0,4.5,58.3,-9999.0,'11111222,111112229999922' 
SCCF RECON,ioos:station:SCCF:16:1,2019-09-01T06:15:00Z,26.4345,-81.9647,10.0,3.0,58.9,-9999.0,'11111222,111112229999922' 
SCCF RECON,ioos:station:SCCF:16:1,2019-09-01T07:15:00Z,26.4345,-81.9647,10.0,3.0,59.9,-9999.0,'11111222,111112229999922' 
SCCF RECON,ioos:station:SCCF:16:1,2019-09-01T08:15:00Z,26.4345,-81.9647,10.0,2.5,63.6,-9999.0,'11111222,111112229999922' 
SCCF RECON,ioos:station:SCCF:16:1,2019-09-01T09:15:00Z,26.4345,-81.9647,10.0,3.5,52.9,-9999.0,'11111222,111112229999922' 
SCCF RECON,ioos:station:SCCF:16:1,2019-09-01T10:15:00Z,26.4345,-81.9647,10.0,3.7,47.1,-9999.0,'11111222,111112229999922' 
SCCF RECON,ioos:station:SCCF:16:1,2019-09-01T11:15:00Z,26.4345,-81.9647,10.0,3.5,24.9,-9999.0,'11111222,111112229999922' 
SCCF RECON,ioos:station:SCCF:16:1,2019-09-01T12:15:00Z,26.4345,-81.9647,10.0,3.9,32.2,-9999.0,'11111222,111112229999922' 
SCCF RECON,ioos:station:SCCF:16:1,2019-09-01T13:15:00Z,26.4345,-81.9647,10.0,3.7,40.4,-9999.0,'11111222,111112229999922' 
SCCF RECON,ioos:station:SCCF:16:1,2019-09-01T14:15:00Z,26.4345,-81.9647,10.0,2.8,53.9,-9999.0,'11111222,111112229999922' 
SCCF RECON,ioos:station:SCCF:16:1,2019-09-01T15:15:00Z,26.4345,-81.9647,10.0,1.9,87.0,-9999.0,'11111222,111442229999922' 
SCCF RECON,ioos:station:SCCF:16:1,2019-09-01T16:15:00Z,26.4345,-81.9647,10.0,1.3,159.9,-9999.0,'11111222,111442229999922' 
SCCF RECON,ioos:station:SCCF:16:1,2019-09-01T17:15:00Z,26.4345,-81.9647,10.0,2.6,238.7,-9999.0,'11111222,111442229999922' 
SCCF RECON,ioos:station:SCCF:16:1,2019-09-01T18:15:00Z,26.4345,-81.9647,10.0,4.0,261.1,-9999.0,'11111222,111442229999922' 
SCCF RECON,ioos:station:SCCF:16:1,2019-09-01T19:15:00Z,26.4345,-81.9647,10.0,5.6,247.1,-9999.0,'11111222,111442229999922' 
SCCF RECON,ioos:station:SCCF:16:1,2019-09-01T20:15:00Z,26.4345,-81.9647,10.0,3.9,312.0,-9999.0,'11111222,111442229999922' 
SCCF RECON,ioos:station:SCCF:16:1,2019-09-01T21:15:00Z,26.4345,-81.9647,10.0,4.7,293.8,-9999.0,'11111222,111442229999922' 
SCCF RECON,ioos:station:SCCF:16:1,2019-09-01T22:15:00Z,26.4345,-81.9647,10.0,6.9,327.6,-9999.0,'11111222,111442229999922' 
SCCF RECON,ioos:station:SCCF:16:1,2019-09-02T04:15:00Z,26.4345,-81.9647,10.0,4.4,337.1,-9999.0,'11111222,111442229999922' 
SCCF RECON,ioos:station:SCCF:16:1,2019-09-02T05:15:00Z,26.4345,-81.9647,10.0,4.1,2.7,-9999.0,'11111222,111112229999922' 
SCCF RECON,ioos:station:SCCF:16:1,2019-09-02T06:15:00Z,26.4345,-81.9647,10.0,3.5,352.2,-9999.0,'11111222,111442229999922' 
SCCF RECON,ioos:station:SCCF:16:1,2019-09-02T07:15:00Z,26.4345,-81.9647,10.0,4.4,338.6,-9999.0,'11111222,111442229999922' 
SCCF RECON,ioos:station:SCCF:16:1,2019-09-02T08:15:00Z,26.4345,-81.9647,10.0,4.6,352.7,-9999.0,'11111222,111442229999922' 
SCCF RECON,ioos:station:SCCF:16:1,2019-09-02T09:15:00Z,26.4345,-81.9647,10.0,6.1,331.1,-9999.0,'11111222,111442229999922' 
SCCF RECON,ioos:station:SCCF:16:1,2019-09-02T10:15:00Z,26.4345,-81.9647,10.0,5.4,332.6,-9999.0,'11111222,111442229999922' 
SCCF RECON,ioos:station:SCCF:16:1,2019-09-02T11:15:00Z,26.4345,-81.9647,10.0,6.6,324.3,-9999.0,'11111222,111442229999922' 
SCCF RECON,ioos:station:SCCF:16:1,2019-09-02T12:15:00Z,26.4345,-81.9647,10.0,6.0,335.0,-9999.0,'11111222,111442229999922' 
SCCF RECON,ioos:station:SCCF:16:1,2019-09-02T15:15:00Z,26.4345,-81.9647,10.0,6.0,339.5,-9999.0,'11111222,111442229999922' 
SCCF RECON,ioos:station:SCCF:16:1,2019-09-02T16:15:00Z,26.4345,-81.9647,10.0,5.5,316.1,-9999.0,'11111222,111442229999922' 
SCCF RECON,ioos:station:SCCF:16:1,2019-09-02T17:15:00Z,26.4345,-81.9647,10.0,7.8,320.5,-9999.0,'11111222,111442229999922' 
SCCF RECON,ioos:station:SCCF:16:1,2019-09-02T18:15:00Z,26.4345,-81.9647,10.0,8.8,291.9,-9999.0,'11111222,111442229999922' 
SCCF RECON,ioos:station:SCCF:16:1,2019-09-02T19:15:00Z,26.4345,-81.9647,10.0,10.3,288.6,-9999.0,'11111222,111442229999922' 
SCCF RECON,ioos:station:SCCF:16:1,2019-09-02T20:15:00Z,26.4345,-81.9647,10.0,9.6,303.3,-9999.0,'11111222,111442229999922' 
SCCF RECON,ioos:station:SCCF:16:1,2019-09-02T21:15:00Z,26.4345,-81.9647,10.0,4.6,7.9,-9999.0,'11111222,111112229999922' 
SCCF RECON,ioos:station:SCCF:16:1,2019-09-02T22:15:00Z,26.4345,-81.9647,10.0,7.6,353.8,-9999.0,'11111222,111442229999922' 
SCCF RECON,ioos:station:SCCF:16:1,2019-09-03T04:15:00Z,26.4345,-81.9647,10.0,7.4,334.5,-9999.0,'11111222,111442229999922' 
SCCF RECON,ioos:station:SCCF:16:1,2019-09-03T05:15:00Z,26.4345,-81.9647,10.0,6.5,330.8,-9999.0,'11111222,111442229999922' 
SCCF RECON,ioos:station:SCCF:16:1,2019-09-03T06:15:00Z,26.4345,-81.9647,10.0,6.3,330.7,-9999.0,'11111222,111442229999922' 
SCCF RECON,ioos:station:SCCF:16:1,2019-09-03T07:15:00Z,26.4345,-81.9647,10.0,6.1,346.9,-9999.0,'11111222,111442229999922' 
SCCF RECON,ioos:station:SCCF:16:1,2019-09-03T08:15:00Z,26.4345,-81.9647,10.0,6.8,340.2,-9999.0,'11111222,111442229999922' 
SCCF RECON,ioos:station:SCCF:16:1,2019-09-03T09:15:00Z,26.4345,-81.9647,10.0,8.6,329.9,-9999.0,'11111222,111442229999922' 
SCCF RECON,ioos:station:SCCF:16:1,2019-09-03T10:15:00Z,26.4345,-81.9647,10.0,8.1,324.7,-9999.0,'11111222,111442229999922' 
SCCF RECON,ioos:station:SCCF:16:1,2019-09-03T11:15:00Z,26.4345,-81.9647,10.0,8.6,326.9,-9999.0,'11111222,111442229999922' 
SCCF RECON,ioos:station:SCCF:16:1,2019-09-03T12:15:00Z,26.4345,-81.9647,10.0,7.6,317.1,-9999.0,'11111222,111442229999922' 
SCCF RECON,ioos:station:SCCF:16:1,2019-09-03T13:15:00Z,26.4345,-81.9647,10.0,7.8,343.4,-9999.0,'11111222,111442229999922' 
SCCF RECON,ioos:station:SCCF:16:1,2019-09-03T14:15:00Z,26.4345,-81.9647,10.0,7.7,312.2,-9999.0,'11111222,111442229999922' 
SCCF RECON,ioos:station:SCCF:16:1,2019-09-03T15:15:00Z,26.4345,-81.9647,10.0,7.6,328.5,-9999.0,'11111222,111442229999922' 
SCCF RECON,ioos:station:SCCF:16:1,2019-09-03T16:15:00Z,26.4345,-81.9647,10.0,7.0,323.1,-9999.0,'11111222,111442229999922' 
SCCF RECON,ioos:station:SCCF:16:1,2019-09-03T17:15:00Z,26.4345,-81.9647,10.0,7.3,317.4,-9999.0,'11111222,111442229999922' 
SCCF RECON,ioos:station:SCCF:16:1,2019-09-03T18:15:00Z,26.4345,-81.9647,10.0,8.8,299.4,-9999.0,'11111222,111442229999922' 
SCCF RECON,ioos:station:SCCF:16:1,2019-09-03T19:15:00Z,26.4345,-81.9647,10.0,9.7,297.3,-9999.0,'11111222,111442229999922' 
SCCF RECON,ioos:station:SCCF:16:1,2019-09-03T20:15:00Z,26.4345,-81.9647,10.0,11.1,291.4,-9999.0,'11111222,111442229999922' 
SCCF RECON,ioos:station:SCCF:16:1,2019-09-03T21:15:00Z,26.4345,-81.9647,10.0,9.2,317.8,-9999.0,'11111222,111442229999922' 
SCCF RECON,ioos:station:SCCF:16:1,2019-09-03T22:15:00Z,26.4345,-81.9647,10.0,8.7,312.4,-9999.0,'11111222,111442229999922' 
SCCF RECON,ioos:station:SCCF:16:1,2019-09-04T04:15:00Z,26.4345,-81.9647,10.0,5.2,324.3,-9999.0,'11111222,111442229999922' 
SCCF RECON,ioos:station:SCCF:16:1,2019-09-04T05:15:00Z,26.4345,-81.9647,10.0,6.1,318.1,-9999.0,'11111222,111442229999922' 
SCCF RECON,ioos:station:SCCF:16:1,2019-09-04T06:15:00Z,26.4345,-81.9647,10.0,7.1,310.3,-9999.0,'11111222,111442229999922' 
SCCF RECON,ioos:station:SCCF:16:1,2019-09-04T07:15:00Z,26.4345,-81.9647,10.0,7.7,301.6,-9999.0,'11111222,111442229999922' 
SCCF RECON,ioos:station:SCCF:16:1,2019-09-04T08:15:00Z,26.4345,-81.9647,10.0,6.6,303.0,-9999.0,'11111222,111442229999922' 
SCCF RECON,ioos:station:SCCF:16:1,2019-09-04T09:15:00Z,26.4345,-81.9647,10.0,7.0,296.4,-9999.0,'11111222,111442229999922' 
SCCF RECON,ioos:station:SCCF:16:1,2019-09-04T10:15:00Z,26.4345,-81.9647,10.0,6.5,299.8,-9999.0,'11111222,111442229999922' 
SCCF RECON,ioos:station:SCCF:16:1,2019-09-04T11:15:00Z,26.4345,-81.9647,10.0,6.8,306.7,-9999.0,'11111222,111442229999922' 
SCCF RECON,ioos:station:SCCF:16:1,2019-09-04T12:15:00Z,26.4345,-81.9647,10.0,8.3,291.9,-9999.0,'11111222,111442229999922' 
SCCF RECON,ioos:station:SCCF:16:1,2019-09-04T13:15:00Z,26.4345,-81.9647,10.0,8.1,280.8,-9999.0,'11111222,111442229999922' 
SCCF RECON,ioos:station:SCCF:16:1,2019-09-04T14:15:00Z,26.4345,-81.9647,10.0,7.6,277.0,-9999.0,'11111222,111442229999922' 
SCCF RECON,ioos:station:SCCF:16:1,2019-09-04T15:15:00Z,26.4345,-81.9647,10.0,8.7,271.0,-9999.0,'11111222,111442229999922' 
SCCF RECON,ioos:station:SCCF:16:1,2019-09-04T16:15:00Z,26.4345,-81.9647,10.0,6.6,270.7,-9999.0,'11111222,111442229999922' 
SCCF RECON,ioos:station:SCCF:16:1,2019-09-04T17:15:00Z,26.4345,-81.9647,10.0,7.3,268.6,-9999.0,'11111222,111442229999922' 
SCCF RECON,ioos:station:SCCF:16:1,2019-09-04T18:15:00Z,26.4345,-81.9647,10.0,9.2,267.2,-9999.0,'11111222,111442229999922' 
SCCF RECON,ioos:station:SCCF:16:1,2019-09-04T19:15:00Z,26.4345,-81.9647,10.0,8.5,268.6,-9999.0,'11111222,111442229999922' 
SCCF RECON,ioos:station:SCCF:16:1,2019-09-04T20:15:00Z,26.4345,-81.9647,10.0,8.3,290.1,-9999.0,'11111222,111442229999922' 
SCCF RECON,ioos:station:SCCF:16:1,2019-09-04T21:15:00Z,26.4345,-81.9647,10.0,10.0,301.3,-9999.0,'11111222,111442229999922' 
SCCF RECON,ioos:station:SCCF:16:1,2019-09-04T22:15:00Z,26.4345,-81.9647,10.0,8.7,280.1,-9999.0,'11111222,111442229999922' 
SCCF RECON,ioos:station:SCCF:16:1,2019-09-05T04:15:00Z,26.4345,-81.9647,10.0,6.0,276.8,-9999.0,'11111222,111442229999922' 
SCCF RECON,ioos:station:SCCF:16:1,2019-09-05T05:15:00Z,26.4345,-81.9647,10.0,5.2,265.9,-9999.0,'11111222,111442229999922' 
SCCF RECON,ioos:station:SCCF:16:1,2019-09-05T06:15:00Z,26.4345,-81.9647,10.0,5.0,267.3,-9999.0,'11111222,111442229999922' 
SCCF RECON,ioos:station:SCCF:16:1,2019-09-05T07:15:00Z,26.4345,-81.9647,10.0,6.9,263.8,-9999.0,'11111222,111442229999922' 
SCCF RECON,ioos:station:SCCF:16:1,2019-09-05T08:15:00Z,26.4345,-81.9647,10.0,6.1,265.9,-9999.0,'11111222,111442229999922' 
SCCF RECON,ioos:station:SCCF:16:1,2019-09-05T09:15:00Z,26.4345,-81.9647,10.0,6.2,268.4,-9999.0,'11111222,111442229999922' 
SCCF RECON,ioos:station:SCCF:16:1,2019-09-05T10:15:00Z,26.4345,-81.9647,10.0,4.5,271.2,-9999.0,'11111222,111442229999922' 
SCCF RECON,ioos:station:SCCF:16:1,2019-09-05T11:15:00Z,26.4345,-81.9647,10.0,6.1,269.5,-9999.0,'11111222,111442229999922' 
SCCF RECON,ioos:station:SCCF:16:1,2019-09-05T12:15:00Z,26.4345,-81.9647,10.0,5.8,277.6,-9999.0,'11111222,111442229999922' 
SCCF RECON,ioos:station:SCCF:16:1,2019-09-05T13:15:00Z,26.4345,-81.9647,10.0,6.9,268.8,-9999.0,'11111222,111442229999922' 
SCCF RECON,ioos:station:SCCF:16:1,2019-09-05T14:15:00Z,26.4345,-81.9647,10.0,6.6,298.9,-9999.0,'11111222,111442229999922' 
SCCF RECON,ioos:station:SCCF:16:1,2019-09-05T15:15:00Z,26.4345,-81.9647,10.0,6.4,283.8,-9999.0,'11111222,111442229999922' 
SCCF RECON,ioos:station:SCCF:16:1,2019-09-05T16:15:00Z,26.4345,-81.9647,10.0,4.6,304.0,-9999.0,'11111222,111442229999922' 
SCCF RECON,ioos:station:SCCF:16:1,2019-09-05T17:15:00Z,26.4345,-81.9647,10.0,4.1,251.6,-9999.0,'11111222,111442229999922' 
SCCF RECON,ioos:station:SCCF:16:1,2019-09-05T18:15:00Z,26.4345,-81.9647,10.0,6.5,255.8,-9999.0,'11111222,111442229999922' 
SCCF RECON,ioos:station:SCCF:16:1,2019-09-05T19:15:00Z,26.4345,-81.9647,10.0,7.3,243.8,-9999.0,'11111222,111442229999922' 
SCCF RECON,ioos:station:SCCF:16:1,2019-09-05T20:15:00Z,26.4345,-81.9647,10.0,7.7,246.4,-9999.0,'11111222,111442229999922' 
SCCF RECON,ioos:station:SCCF:16:1,2019-09-05T21:15:00Z,26.4345,-81.9647,10.0,7.2,247.8,-9999.0,'11111222,111442229999922' 
SCCF RECON,ioos:station:SCCF:16:1,2019-09-05T22:15:00Z,26.4345,-81.9647,10.0,7.3,253.0,-9999.0,'11111222,111442229999922' 
SCCF RECON,ioos:station:SCCF:16:1,2019-09-06T04:15:00Z,26.4345,-81.9647,10.0,7.9,252.7,-9999.0,'11111222,111442229999922' 
SCCF RECON,ioos:station:SCCF:16:1,2019-09-06T07:15:00Z,26.4345,-81.9647,10.0,6.1,286.3,-9999.0,'11111222,111442229999922' 
SCCF RECON,ioos:station:SCCF:16:1,2019-09-06T08:15:00Z,26.4345,-81.9647,10.0,6.4,278.4,-9999.0,'11111222,111442229999922' 
SCCF RECON,ioos:station:SCCF:16:1,2019-09-06T09:15:00Z,26.4345,-81.9647,10.0,4.9,268.6,-9999.0,'11111222,111442229999922' 
SCCF RECON,ioos:station:SCCF:16:1,2019-09-06T10:15:00Z,26.4345,-81.9647,10.0,5.4,273.1,-9999.0,'11111222,111442229999922' 
SCCF RECON,ioos:station:SCCF:16:1,2019-09-06T11:15:00Z,26.4345,-81.9647,10.0,4.6,262.4,-9999.0,'11111222,111442229999922' 
SCCF RECON,ioos:station:SCCF:16:1,2019-09-06T12:15:00Z,26.4345,-81.9647,10.0,5.6,274.0,-9999.0,'11111222,111442229999922' 
SCCF RECON,ioos:station:SCCF:16:1,2019-09-06T13:15:00Z,26.4345,-81.9647,10.0,6.7,259.4,-9999.0,'11111222,111442229999922' 
SCCF RECON,ioos:station:SCCF:16:1,2019-09-06T14:15:00Z,26.4345,-81.9647,10.0,6.3,270.2,-9999.0,'11111222,111442229999922' 
SCCF RECON,ioos:station:SCCF:16:1,2019-09-06T15:15:00Z,26.4345,-81.9647,10.0,6.9,248.4,-9999.0,'11111222,111442229999922' 
SCCF RECON,ioos:station:SCCF:16:1,2019-09-06T16:15:00Z,26.4345,-81.9647,10.0,6.0,252.6,-9999.0,'11111222,111442229999922' 
SCCF RECON,ioos:station:SCCF:16:1,2019-09-06T17:15:00Z,26.4345,-81.9647,10.0,7.2,250.5,-9999.0,'11111222,111442229999922' 
SCCF RECON,ioos:station:SCCF:16:1,2019-09-06T18:15:00Z,26.4345,-81.9647,10.0,7.1,249.9,-9999.0,'11111222,111442229999922' 
SCCF RECON,ioos:station:SCCF:16:1,2019-09-06T19:15:00Z,26.4345,-81.9647,10.0,7.8,248.1,-9999.0,'11111222,111442229999922' 
SCCF RECON,ioos:station:SCCF:16:1,2019-09-06T20:15:00Z,26.4345,-81.9647,10.0,6.6,250.4,-9999.0,'11111222,111442229999922' 
SCCF RECON,ioos:station:SCCF:16:1,2019-09-06T21:15:00Z,26.4345,-81.9647,10.0,7.1,247.1,-9999.0,'11111222,111442229999922' 
SCCF RECON,ioos:station:SCCF:16:1,2019-09-06T22:15:00Z,26.4345,-81.9647,10.0,6.1,247.7,-9999.0,'11111222,111442229999922' 
SCCF RECON,ioos:station:SCCF:16:1,2019-09-07T04:15:00Z,26.4345,-81.9647,10.0,4.3,263.3,-9999.0,'11111222,111442229999922' 
SCCF RECON,ioos:station:SCCF:16:1,2019-09-07T05:15:00Z,26.4345,-81.9647,10.0,5.1,259.8,-9999.0,'11111222,111442229999922' 
SCCF RECON,ioos:station:SCCF:16:1,2019-09-07T06:15:00Z,26.4345,-81.9647,10.0,5.7,248.6,-9999.0,'11111222,111442229999922' 
SCCF RECON,ioos:station:SCCF:16:1,2019-09-07T07:15:00Z,26.4345,-81.9647,10.0,6.3,239.7,-9999.0,'11111222,111442229999922' 
SCCF RECON,ioos:station:SCCF:16:1,2019-09-07T08:15:00Z,26.4345,-81.9647,10.0,4.9,266.1,-9999.0,'11111222,111442229999922' 
SCCF RECON,ioos:station:SCCF:16:1,2019-09-07T09:15:00Z,26.4345,-81.9647,10.0,5.6,235.3,-9999.0,'11111222,111442229999922' 
SCCF RECON,ioos:station:SCCF:16:1,2019-09-07T10:15:00Z,26.4345,-81.9647,10.0,5.8,325.8,-9999.0,'11111222,111442229999922' 
SCCF RECON,ioos:station:SCCF:16:1,2019-09-07T11:15:00Z,26.4345,-81.9647,10.0,0.6,335.8,-9999.0,'11111222,111442229999922' 
SCCF RECON,ioos:station:SCCF:16:1,2019-09-07T12:15:00Z,26.4345,-81.9647,10.0,2.0,327.2,-9999.0,'11111222,111442229999922' 
SCCF RECON,ioos:station:SCCF:16:1,2019-09-07T13:15:00Z,26.4345,-81.9647,10.0,1.7,336.7,-9999.0,'11111222,111442229999922' 
SCCF RECON,ioos:station:SCCF:16:1,2019-09-07T14:15:00Z,26.4345,-81.9647,10.0,1.7,313.1,-9999.0,'11111222,111442229999922' 
SCCF RECON,ioos:station:SCCF:16:1,2019-09-07T15:15:00Z,26.4345,-81.9647,10.0,1.5,318.7,-9999.0,'11111222,111442229999922' 
SCCF RECON,ioos:station:SCCF:16:1,2019-09-07T16:15:00Z,26.4345,-81.9647,10.0,0.6,287.5,-9999.0,'11111222,111442229999922' 
SCCF RECON,ioos:station:SCCF:16:1,2019-09-07T17:15:00Z,26.4345,-81.9647,10.0,2.7,230.0,-9999.0,'11111222,111442229999922' 
SCCF RECON,ioos:station:SCCF:16:1,2019-09-07T18:15:00Z,26.4345,-81.9647,10.0,5.4,229.9,-9999.0,'11111222,111442229999922' 
SCCF RECON,ioos:station:SCCF:16:1,2019-09-07T19:15:00Z,26.4345,-81.9647,10.0,4.2,226.1,-9999.0,'11111222,111442229999922' 
SCCF RECON,ioos:station:SCCF:16:1,2019-09-07T20:15:00Z,26.4345,-81.9647,10.0,4.0,263.9,-9999.0,'11111222,111442229999922' 
SCCF RECON,ioos:station:SCCF:16:1,2019-09-07T21:15:00Z,26.4345,-81.9647,10.0,4.7,230.2,-9999.0,'11111222,111442229999922' 
SCCF RECON,ioos:station:SCCF:16:1,2019-09-07T22:15:00Z,26.4345,-81.9647,10.0,3.9,232.2,-9999.0,'11111222,111442229999922' 
SCCF RECON,ioos:station:SCCF:16:1,2019-09-08T04:15:00Z,26.4345,-81.9647,10.0,3.9,281.7,-9999.0,'11111222,111442229999922' 
SCCF RECON,ioos:station:SCCF:16:1,2019-09-08T05:15:00Z,26.4345,-81.9647,10.0,3.5,289.9,-9999.0,'11111222,111442229999922' 
SCCF RECON,ioos:station:SCCF:16:1,2019-09-08T06:15:00Z,26.4345,-81.9647,10.0,2.9,284.6,-9999.0,'11111222,111442229999922' 
SCCF RECON,ioos:station:SCCF:16:1,2019-09-08T07:15:00Z,26.4345,-81.9647,10.0,1.4,16.6,-9999.0,'11111222,111112229999922' 
SCCF RECON,ioos:station:SCCF:16:1,2019-09-08T08:15:00Z,26.4345,-81.9647,10.0,1.1,36.1,-9999.0,'11111222,111112229999922' 
SCCF RECON,ioos:station:SCCF:16:1,2019-09-08T09:15:00Z,26.4345,-81.9647,10.0,0.8,5.2,-9999.0,'11111222,111112229999922' 
SCCF RECON,ioos:station:SCCF:16:1,2019-09-08T10:15:00Z,26.4345,-81.9647,10.0,1.4,35.8,-9999.0,'11111222,111112229999922' 
SCCF RECON,ioos:station:SCCF:16:1,2019-09-08T11:15:00Z,26.4345,-81.9647,10.0,2.0,75.4,-9999.0,'11111222,111442229999922' 
SCCF RECON,ioos:station:SCCF:16:1,2019-09-08T12:15:00Z,26.4345,-81.9647,10.0,1.5,65.2,-9999.0,'11111222,111112229999922' 
SCCF RECON,ioos:station:SCCF:16:1,2019-09-08T13:15:00Z,26.4345,-81.9647,10.0,1.1,175.1,-9999.0,'11111222,111442229999922' 
SCCF RECON,ioos:station:SCCF:16:1,2019-09-08T14:15:00Z,26.4345,-81.9647,10.0,2.0,119.1,-9999.0,'11111222,111442229999922' 
SCCF RECON,ioos:station:SCCF:16:1,2019-09-08T15:15:00Z,26.4345,-81.9647,10.0,2.1,139.1,-9999.0,'11111222,111442229999922' 
SCCF RECON,ioos:station:SCCF:16:1,2019-09-08T16:15:00Z,26.4345,-81.9647,10.0,1.8,158.3,-9999.0,'11111222,111442229999922' 
SCCF RECON,ioos:station:SCCF:16:1,2019-09-08T17:15:00Z,26.4345,-81.9647,10.0,1.2,233.8,-9999.0,'11111222,111442229999922' 
SCCF RECON,ioos:station:SCCF:16:1,2019-09-08T18:15:00Z,26.4345,-81.9647,10.0,2.3,251.9,-9999.0,'11111222,111442229999922' 
SCCF RECON,ioos:station:SCCF:16:1,2019-09-08T19:15:00Z,26.4345,-81.9647,10.0,2.6,238.8,-9999.0,'11111222,111442229999922' 
SCCF RECON,ioos:station:SCCF:16:1,2019-09-08T20:15:00Z,26.4345,-81.9647,10.0,2.6,230.5,-9999.0,'11111222,111442229999922' 
SCCF RECON,ioos:station:SCCF:16:1,2019-09-08T21:15:00Z,26.4345,-81.9647,10.0,3.0,210.5,-9999.0,'11111222,111442229999922' 
SCCF RECON,ioos:station:SCCF:16:1,2019-09-08T22:15:00Z,26.4345,-81.9647,10.0,2.4,218.8,-9999.0,'11111222,111442229999922' 
SCCF RECON,ioos:station:SCCF:16:1,2019-09-09T04:15:00Z,26.4345,-81.9647,10.0,1.3,149.9,-9999.0,'11111222,111442229999922' 
SCCF RECON,ioos:station:SCCF:16:1,2019-09-09T05:15:00Z,26.4345,-81.9647,10.0,3.5,145.7,-9999.0,'11111222,111442229999922' 
SCCF RECON,ioos:station:SCCF:16:1,2019-09-09T06:15:00Z,26.4345,-81.9647,10.0,2.9,122.9,-9999.0,'11111222,111442229999922' 
SCCF RECON,ioos:station:SCCF:16:1,2019-09-09T07:15:00Z,26.4345,-81.9647,10.0,4.7,113.3,-9999.0,'11111222,111442229999922' 
SCCF RECON,ioos:station:SCCF:16:1,2019-09-09T08:15:00Z,26.4345,-81.9647,10.0,2.5,77.8,-9999.0,'11111222,111442229999922' 
SCCF RECON,ioos:station:SCCF:16:1,2019-09-09T09:15:00Z,26.4345,-81.9647,10.0,3.4,57.8,-9999.0,'11111222,111112229999922' 
SCCF RECON,ioos:station:SCCF:16:1,2019-09-09T10:15:00Z,26.4345,-81.9647,10.0,3.3,89.8,-9999.0,'11111222,111442229999922' 
SCCF RECON,ioos:station:SCCF:16:1,2019-09-09T11:15:00Z,26.4345,-81.9647,10.0,4.6,100.0,-9999.0,'11111222,111442229999922' 
SCCF RECON,ioos:station:SCCF:16:1,2019-09-09T12:15:00Z,26.4345,-81.9647,10.0,3.1,101.2,-9999.0,'11111222,111442229999922' 
SCCF RECON,ioos:station:SCCF:16:1,2019-09-09T13:15:00Z,26.4345,-81.9647,10.0,3.3,115.4,-9999.0,'11111222,111442229999922' 
SCCF RECON,ioos:station:SCCF:16:1,2019-09-09T15:15:00Z,26.4345,-81.9647,10.0,2.5,132.3,-9999.0,'11111222,111442229999922' 
SCCF RECON,ioos:station:SCCF:16:1,2019-09-09T16:15:00Z,26.4345,-81.9647,10.0,1.9,158.0,-9999.0,'11111222,111442229999922' 
SCCF RECON,ioos:station:SCCF:16:1,2019-09-09T17:15:00Z,26.4345,-81.9647,10.0,0.6,224.1,-9999.0,'11111222,111442229999922' 
SCCF RECON,ioos:station:SCCF:16:1,2019-09-09T21:15:00Z,26.4345,-81.9647,10.0,9.6,337.0,-9999.0,'11111222,111442229999922' 
SCCF RECON,ioos:station:SCCF:16:1,2019-09-09T22:15:00Z,26.4345,-81.9647,10.0,4.0,217.1,-9999.0,'11111222,111442229999922' 
SCCF RECON,ioos:station:SCCF:16:1,2019-09-10T04:15:00Z,26.4345,-81.9647,10.0,1.5,55.2,-9999.0,'11111222,111112229999922' 
SCCF RECON,ioos:station:SCCF:16:1,2019-09-10T06:15:00Z,26.4345,-81.9647,10.0,4.1,79.2,-9999.0,'11111222,111442229999922' 
SCCF RECON,ioos:station:SCCF:16:1,2019-09-10T07:15:00Z,26.4345,-81.9647,10.0,4.6,71.7,-9999.0,'11111222,111332229999922' 
SCCF RECON,ioos:station:SCCF:16:1,2019-09-10T08:15:00Z,26.4345,-81.9647,10.0,3.5,76.8,-9999.0,'11111222,111442229999922' 
SCCF RECON,ioos:station:SCCF:16:1,2019-09-10T09:15:00Z,26.4345,-81.9647,10.0,3.8,55.9,-9999.0,'11111222,111112229999922' 
SCCF RECON,ioos:station:SCCF:16:1,2019-09-10T10:15:00Z,26.4345,-81.9647,10.0,4.5,58.9,-9999.0,'11111222,111112229999922' 
SCCF RECON,ioos:station:SCCF:16:1,2019-09-10T11:15:00Z,26.4345,-81.9647,10.0,4.2,60.6,-9999.0,'11111222,111112229999922' 
SCCF RECON,ioos:station:SCCF:16:1,2019-09-10T12:15:00Z,26.4345,-81.9647,10.0,4.3,56.4,-9999.0,'11111222,111112229999922' 
SCCF RECON,ioos:station:SCCF:16:1,2019-09-10T13:15:00Z,26.4345,-81.9647,10.0,4.8,65.9,-9999.0,'11111222,111112229999922' 
SCCF RECON,ioos:station:SCCF:16:1,2019-09-10T14:15:00Z,26.4345,-81.9647,10.0,5.9,76.0,-9999.0,'11111222,111442229999922' 
SCCF RECON,ioos:station:SCCF:16:1,2019-09-10T15:15:00Z,26.4345,-81.9647,10.0,5.1,60.2,-9999.0,'11111222,111112229999922' 
SCCF RECON,ioos:station:SCCF:16:1,2019-09-10T16:15:00Z,26.4345,-81.9647,10.0,5.5,70.1,-9999.0,'11111222,111332229999922' 
SCCF RECON,ioos:station:SCCF:16:1,2019-09-10T17:15:00Z,26.4345,-81.9647,10.0,6.4,85.5,-9999.0,'11111222,111442229999922' 
SCCF RECON,ioos:station:SCCF:16:1,2019-09-10T18:15:00Z,26.4345,-81.9647,10.0,4.5,71.3,-9999.0,'11111222,111332229999922' 
SCCF RECON,ioos:station:SCCF:16:1,2019-09-10T19:15:00Z,26.4345,-81.9647,10.0,4.2,69.0,-9999.0,'11111222,111112229999922' 
SCCF RECON,ioos:station:SCCF:16:1,2019-09-10T20:15:00Z,26.4345,-81.9647,10.0,4.9,64.6,-9999.0,'11111222,111112229999922' 
SCCF RECON,ioos:station:SCCF:16:1,2019-09-10T21:15:00Z,26.4345,-81.9647,10.0,7.5,74.2,-9999.0,'11111222,111332229999922' 
SCCF RECON,ioos:station:SCCF:16:1,2019-09-10T22:15:00Z,26.4345,-81.9647,10.0,7.8,74.4,-9999.0,'11111222,111332229999922' 
SCCF RECON,ioos:station:SCCF:16:1,2019-09-11T04:15:00Z,26.4345,-81.9647,10.0,6.0,53.6,-9999.0,'11111222,111112229999922' 
SCCF RECON,ioos:station:SCCF:16:1,2019-09-11T06:15:00Z,26.4345,-81.9647,10.0,4.2,45.4,-9999.0,'11111222,111112229999922' 
SCCF RECON,ioos:station:SCCF:16:1,2019-09-11T07:15:00Z,26.4345,-81.9647,10.0,3.9,49.4,-9999.0,'11111222,111112229999922' 
SCCF RECON,ioos:station:SCCF:16:1,2019-09-11T08:15:00Z,26.4345,-81.9647,10.0,4.5,42.1,-9999.0,'11111222,111112229999922' 
SCCF RECON,ioos:station:SCCF:16:1,2019-09-11T09:15:00Z,26.4345,-81.9647,10.0,4.5,31.9,-9999.0,'11111222,111112229999922' 
SCCF RECON,ioos:station:SCCF:16:1,2019-09-11T10:15:00Z,26.4345,-81.9647,10.0,3.9,32.6,-9999.0,'11111222,111112229999922' 
SCCF RECON,ioos:station:SCCF:16:1,2019-09-11T11:15:00Z,26.4345,-81.9647,10.0,4.7,29.0,-9999.0,'11111222,111112229999922' 
SCCF RECON,ioos:station:SCCF:16:1,2019-09-11T12:15:00Z,26.4345,-81.9647,10.0,5.3,30.2,-9999.0,'11111222,111112229999922' 
SCCF RECON,ioos:station:SCCF:16:1,2019-09-11T13:15:00Z,26.4345,-81.9647,10.0,5.3,44.6,-9999.0,'11111222,111112229999922' 
SCCF RECON,ioos:station:SCCF:16:1,2019-09-11T14:15:00Z,26.4345,-81.9647,10.0,6.7,72.0,-9999.0,'11111222,111332229999922' 
SCCF RECON,ioos:station:SCCF:16:1,2019-09-11T15:15:00Z,26.4345,-81.9647,10.0,8.0,57.4,-9999.0,'11111222,111112229999922' 
SCCF RECON,ioos:station:SCCF:16:1,2019-09-11T16:15:00Z,26.4345,-81.9647,10.0,7.7,74.3,-9999.0,'11111222,111332229999922' 
SCCF RECON,ioos:station:SCCF:16:1,2019-09-11T17:15:00Z,26.4345,-81.9647,10.0,7.8,54.9,-9999.0,'11111222,111112229999922' 